Погода в Выборге

Хотите узнать прогноз погоды в Выборге? Тогда Вам сюда: Погода в Выборге

Поиск расширенной информации на нашем сайте:

Полезная информация:

Новости сайта



02.01.2020
Опубликован Долгосрочный прогноз погоды по городам России и ближнего зарубежья на январь 2020 года.
Карты: Прогноз на январь и февраль 2020 года, Сравнение прогнозируемой аномалии приземной температуры воздуха на январь 2020 года по разным моделям.




Погода в Выборге - сегодня

Время (UTC), дата Ветер
(°,м/с) 
Видим.   Явления Облачность Т
(°С)
Тd
(°С)
f(%) Тe
(°С)
Pmin
(гПа)
dP
(гПа)
Po
(мм)
O2
(г/м3)
Тmin Tmax R s Состояние
почвы
00 19.01.20 230 (ЮЗ) 9-11{13}  4000 м  слаб. ливневой дождь  10/10 240 м кучево-дожд. 
[Cb cap]
+3.3 +2 91 -1  1011.9  0.7  758  301           
03 19.01.20 230 (ЮЗ) 10-12{13}  10 км    8/8 540 м кучево-дожд. 
[Cb cap]
+3.5 +1.4 86 -1  1012.3  0.4  758  301  +2.2    0.7     
06 19.01.20 230 (ЮЗ) 9-12{13}  20000 м  слаб. ливневой дождь  9/9 300 м кучево-дожд. 
[Cb cap]
+3.1 +1.8 91 -1  1012.2  -0.1  758  302  +2.2       
09 19.01.20 240 (ЮЗ) 7-10{14}  10 км  слаб. ливневой дождь  10/10 210 м кучево-дожд. 
[Cb calv]
+3.2 +2.2 93 1012.4  0.2  758  302           
12 19.01.20 270 (З) 4{12}  20000 м  {ливн. осадки}  10/10 600 м 
[Sc diur, vesp]
+4.1 +2.4 89 +2  1013.6  1.2  759  301           
15 19.01.20 290 (З) 3{11}  10 км    10/10 480 м 
[Sc]
+1.6 -0.3 87 1017.8  4.2  762  305         
18 19.01.20 290 (З) 3{10}  10 км  {ливн. осадки}  10/10 840 м 
[Sc]
+1 -0.4 90 -1  1020.1  2.3  764  307    +4.3     
21 19.01.20 300 (СЗ) 10 км    10/10 720 м 
[Sc]
+1.4 -0.3 88 +1  1021.5  1.4  765  307           
00 20.01.20 290 (З) 10 км    8/8 800 м 
[Sc]
+1 -0.4 90 -1  1022.9  1.4  766  308           
03 20.01.20 290 (З) 10 км    10/10 800 м 
+1 -0.4 90 -1  1022.9  766  308  +0.8    0.0     
06 20.01.20 290 (З) 10 км    10/10 300 м 
[Sc]
+1.2 -0.2 90 1022.1  -0.8  765  307  +0.4         
09 20.01.20 250 (З) 20000 м    10/10 540 м 
[Sc]
+2 +0.4 89 -1  1022  -0.1  765  306           
12 20.01.20 250 (З) 20000 м    10/10 800 м 
[Sc]
+2.6 -1 77 1019.3  -2.7  763  305           
15 20.01.20 260 (З) 5{10}  10 км  {ливн. осадки}  10/0 средняя 
[Ac As]
+3 -1.5 72 +1  1016.4  -2.9  761  304           
18 20.01.20 250 (З) 10 км  {ливн. осадки}  8/0 средняя 
[Ac trans]
+3 -0.2 79 1013.5  -2.9  759  302    +3.3  0.0     
21 20.01.20 230 (ЮЗ) 8-11{11}  10 км  слаб. ливневой дождь  10/8 600 м кучево-дожд., средняя 
[Cb cap|As op]
+2.9 +1.6 91 -1  1009.3  -4.2  756  301           
00 21.01.20 240 (ЮЗ) 6{11}  10 км  {ливн. осадки}  8/8 600 м кучево-дожд. 
[Cb cap]
+3.8 +1.2 83 +1  1006.8  -2.5  754  299           
03 21.01.20 220 (ЮЗ) 10 км    6/0 средняя 
[Ac trans]
+2.6 +1 89 1003.7  -3.1  752  300  +2.3    0.3     
06 21.01.20 250 (З) 5{10}  10 км    8/0 средняя 
[Ac As]
+6 +2.6 79 +4  1001.8  -1.9  750  295  +2.3    0.3     
09 21.01.20 300 (СЗ) 20000 м    9/3 600 м кучево-дожд., средняя, верхняя 
[Cb cap|Ac trans|Ci fib]
+6.5 +1.8 72 +5  1000.7  -1.1  749  295           
12 21.01.20 320 (СЗ) 5{14}  20000 м    5/0 верхняя 
[Cc]
+6 -2.9 53 +4  1001.7  750  296           
15 21.01.20 300 (СЗ) 5{12}  10 км    ясно 
+3.3 -3.8 60 +1  1003.5  1.8  751  300           
18 21.01.20 290 (З) 5{11}  10 км    ясно 
+2.1 -3.9 64 -1  1002.8  -0.7  751  301    +6.9       
21 21.01.20 280 (З) 5{11}  10 км    ясно 
+2 -3.7 66 -1  1000.8  -2  749  300           
00 22.01.20 290 (З) 4{11}  10 км    4/0 средняя 
[Ac trans]
+1.9 -3.5 67 999  -1.8  748  300           
Время (UTC), дата Ветер
(°,м/с) 
Видим.   Явления Облачность Т
(°С)
Тd
(°С)
f(%) Тe
(°С)
Pmin
(гПа)
dP
(гПа)
Po
(мм)
O2
(г/м3)
Тmin Tmax R s Состояние
почвы

Для получения пояснительной информации подведите курсор к названию столбца.

ПОГОДА в Выборге - архив

Всё, что Вы хотите узнать о погоде в Выборге - удобно и подробно!

Выберите нужную дату (начиная с 1 января 2019* года) и нажмите кнопку "Найти".
Будут отображены архивные сводки погоды по пункту Выборг, начиная с указанной даты.


Отображать данные в формате CSV (для использования в таблицах Excel)


Внимание! Наш архив погоды предназначен исключительно для личного некоммерческого использования в познавательных целях. Если Вам необходимы официальные справки о состоянии погоды (для производственных, юридических, коммерческих и т.п. целей), обращайтесь в органы Росгидромета.

*Примечание: данная дата относится к архиву по метеостанциям СССР (Россия, СНГ, Балтия).
Архив по метеостанциям Зарубежной Европы и Азии (кроме Китая) хранится 10 дней, по другим регионам земного шара (Китай, Африка, Америка, Австралия, Океания) - 1 день.

Выборг - район местоположения метеостанции


Название, широта, долгота, высота метеостанции:
Выборг 60.7°ш. 28.7°д. 13 м над ур. моря [Российская Федерация]

Дополнительная информация

В oтличие oт бoльшинства пoгoдных сайтoв мы публикуем пoдрoбную метеoинфoрмацию в детальнoм прoфессиoнальнoм фoрмате.

Характеристики температуры и влажнoсти вoздуха измеряются на высoте 2 м в тени вдали oт зданий и деревьев.
Скoрoсть ветра измеряется на высoте 10 м (на урoвне рoста челoвека скoрoсть ветра ниже в 1.5-2 раза). Если метеoстанция нахoдится в гoрoде или в лесу, тo скoрoсть ветра занижена на 2-4 м/с пo сравнению с oткрытым местoм. Скoрoсть ветра над акватoриями крупных рек и oзёр, а также на вершинах хoлмoв на 2-5 м/с выше, чем в oбычных услoвиях.
Атмoсфернoе давление в разных тoчках местнoсти мoжет значительнo oтличаться oт давления на метеoстанции, в зависимoсти oт услoвий рельефа (при пoдъёме на 10 м давление пoнижается примернo на 1 мм рт.ст.).